This demonstration page uses our WeatherBlox Daily Observations layout. Learn more.

Left ArrowRight Arrow

39.12711, -84.51439

Hourly Observations for November 2, 2020

Temp ( °F °C ) Dew Point ( °F °C ) Humidity (%) Winds ( mph kmh ) Pressure ( in mb ) Visibility ( mi km ) Precip ( " mm )
12:53 am 00:53 Clear 34 1.1 21 -6.1 59 59 W 9 15 30.38 1029 10 16 0.00 0.00
1:53 am 01:53 Clear 34 1.1 21 -6.1 59 59 W 6 9 30.40 1029 10 16 0.00 0.00
2:53 am 02:53 Clear 34 1.1 20 -6.7 56 56 W 6 9 30.40 1029 10 16 0.00 0.00
3:53 am 03:53 Clear 32 0 20 -6.7 61 61 W 7 11 30.41 1030 10 16 0.00 0.00
4:53 am 04:53 Clear 32 0 20 -6.7 61 61 WNW 7 11 30.42 1030 10 16 0.00 0.00
5:53 am 05:53 Clear 29 -1.7 20 -6.7 69 69 W 5 7 30.43 1031 10 16 0.00 0.00
6:53 am 06:53 Clear 30 -1.1 20 -6.7 66 66 W 7 11 30.45 1031 10 16 0.00 0.00
7:53 am 07:53 Sunny 31 -0.6 23 -5 72 72 WSW 7 11 30.45 1031 10 16 0.00 0.00
8:53 am 08:53 Sunny 36 2.2 22 -5.6 57 57 W 7 11 30.47 1032 10 16 0.00 0.00
9:53 am 09:53 Sunny 38 3.3 23 -5 55 55 VRB 6 9 30.46 1032 10 16 0.00 0.00
10:53 am 10:53 Sunny 42 5.6 21 -6.1 43 43 W 12 19 30.44 1031 10 16 0.00 0.00
11:53 am 11:53 Sunny 45 7.2 20 -6.7 37 37 W 12 19 30.42 1030 10 16 0.00 0.00
12:53 pm 12:53 Sunny 47 8.3 18 -7.8 31 31 WSW 9 15 30.37 1029 10 16 0.00 0.00
1:53 pm 13:53 Sunny 49 9.4 17 -8.3 28 28 W 10 17 30.34 1027 10 16 0.00 0.00
2:53 pm 14:53 Sunny 50 10 16 -8.9 26 26 WSW 12 19 30.31 1026 10 16 0.00 0.00
3:53 pm 15:53 Sunny 50 10 17 -8.3 27 27 W 10 17 30.30 1026 10 16 0.00 0.00
4:53 pm 16:53 Sunny 47 8.3 16 -8.9 29 29 WSW 12 19 30.29 1026 10 16 0.00 0.00
5:53 pm 17:53 Clear 43 6.1 17 -8.3 35 35 SW 10 17 30.28 1026 10 16 0.00 0.00
6:53 pm 18:53 Clear 41 5 19 -7.2 41 41 SSW 9 15 30.27 1025 10 16 0.00 0.00
7:53 pm 19:53 Clear 38 3.3 20 -6.7 48 48 S 7 11 30.27 1025 10 16 0.00 0.00
8:53 pm 20:53 Clear 40 4.4 21 -6.1 47 47 SW 7 11 30.25 1025 10 16 0.00 0.00
9:53 pm 21:53 Clear 41 5 20 -6.7 43 43 SW 8 13 30.24 1024 10 16 0.00 0.00
10:53 pm 22:53 Clear 41 5 20 -6.7 43 43 SW 8 13 30.24 1024 10 16 0.00 0.00
11:53 pm 23:53 Clear 40 4.4 21 -6.1 47 47 SW 8 13 30.24 1024 10 16 0.00 0.00

Powered by AerisWeather